Temp
25 25 25 25 25 24 25 25 25 24 24 24 24 24 24 23 23 23 23 23 23 23 22 23 23 23 23 22 22 22 22 22 22 22 22 22 22 22 21 21 21 22 22 23 23 23 23 22 22 22 21 21 21 21 21 21 21 21 21 21 21 21 21 21 21 21 22 22 21 21 21 20 20 20 20 20 20 21 21 21 21 20 20 20 20
25 24 24 24 24 24 24 24 24 24 24 24 24 24 23 23 23 23 23 22 22 22 22 23 23 23 22 22 22 22 22 22 22 22 22 22 22 22 21 21 21 21 22 22 22 23 23 23 22 22 21 21 21 21 21 22 22 22 21 21 21 21 21 21 21 21 21 22 22 21 21 21 20 20 20 20 20 21 21 21 21 21 21 20 20
24 23 24 24 23 23 24 24 24 24 24 24 23 23 23 23 22 22 22 22 22 22 22 23 23 23 23 22 22 22 22 22 22 22 22 22 22 22 21 21 21 22 22 22 22 22 23 23 22 22 22 22 22 21 21 21 22 22 22 22 21 21 21 21 21 21 21 22 21 22 22 21 21 21 20 20 20 20 21 21 21 21 21 21 21
23 23 23 23 23 24 24 24 23 23 23 23 23 23 23 23 22 22 22 22 22 22 22 23 23 23 23 23 22 22 22 22 22 23 22 22 22 22 22 22 22 22 22 22 22 22 22 22 22 22 23 22 22 21 21 21 21 21 21 21 22 21 21 21 21 21 21 21 22 22 22 22 22 21 21 21 21 21 21 21 21 21 21 21 21
23 24 24 23 23 24 24 23 23 23 23 23 22 23 23 23 22 22 22 22 23 23 23 23 23 23 23 23 22 22 22 22 22 22 22 23 23 23 23 23 22 22 22 22 22 22 21 22 22 22 23 23 22 22 21 21 21 21 21 21 22 22 22 21 21 21 21 21 21 22 22 22 22 22 21 21 21 21 21 21 21 21 21 21 21
24 24 24 24 24 23 23 23 22 22 23 22 22 23 23 23 22 22 22 22 23 23 23 23 23 23 23 22 22 22 22 22 22 22 22 23 23 23 23 23 23 23 23 22 22 22 21 22 23 22 22 22 22 22 22 22 21 21 21 21 22 21 21 21 21 21 21 21 21 21 22 22 22 22 22 22 21 21 21 21 21 21 21 21 21
23 24 24 24 24 23 23 23 22 22 23 22 22 23 23 23 23 22 22 23 23 22 22 23 23 23 23 23 23 23 23 23 22 22 22 22 23 23 23 23 24 24 23 23 22 22 22 22 22 22 22 22 22 22 22 22 21 21 21 21 21 21 21 21 21 21 21 21 21 21 21 22 22 22 22 22 22 22 22 22 22 22 21 21 21
24 24 24 24 24 24 23 23 22 22 23 22 22 23 22 22 22 22 23 22 22 22 22 22 23 23 22 23 23 23 23 23 22 23 22 22 23 23 23 23 23 23 23 24 23 22 22 22 22 22 22 22 22 22 22 21 21 21 21 21 21 21 21 21 21 21 21 21 21 21 21 21 22 22 22 22 22 22 22 22 22 22 22 22 22
24 24 24 24 24 23 22 23 23 22 22 22 22 22 22 22 22 22 22 22 22 23 22 22 23 23 23 23 23 23 23 23 23 23 22 22 22 23 22 22 22 22 23 24 24 23 22 22 22 22 22 22 22 22 22 21 21 21 21 21 21 21 21 21 21 21 21 21 21 21 21 22 22 22 22 22 22 22 22 22 22 22 22 22 22
24 24 24 24 24 23 22 23 23 23 22 22 22 22 22 22 22 21 21 22 22 23 22 23 23 23 23 23 23 23 23 23 22 22 22 22 22 23 23 22 22 22 22 23 23 23 23 22 22 22 22 22 22 22 21 21 21 21 21 21 21 21 21 21 21 21 21 21 21 21 21 21 21 21 21 21 21 22 22 22 22 22 22 22 22
24 24 24 24 23 23 23 22 23 22 22 22 22 22 22 22 22 21 21 21 22 22 22 22 23 23 23 23 22 22 23 22 22 22 22 23 23 23 23 23 22 22 22 22 22 22 22 22 22 22 22 22 22 22 21 21 21 21 21 21 21 21 21 21 21 21 21 21 21 21 21 21 21 21 21 21 21 21 21 21 21 22 22 22 22
24 23 23 23 23 23 23 22 22 22 22 22 22 22 22 22 22 22 21 22 21 22 22 22 23 23 23 23 22 22 22 22 22 22 22 23 23 23 23 23 23 22 22 22 22 22 22 22 22 22 21 21 21 21 21 21 21 21 21 21 21 21 21 21 21 21 21 21 21 21 21 21 21 21 21 21 21 21 21 21 21 21 21 22 22
23 23 23 23 23 23 23 22 22 22 22 22 22 22 21 21 22 21 21 22 22 22 22 22 22 23 23 24 23 22 22 22 22 22 22 23 23 23 23 23 23 23 22 22 22 22 22 22 22 22 21 21 20 21 21 20 20 20 20 20 21 21 21 21 21 21 21 21 21 21 21 21 21 21 21 21 21 21 21 21 21 21 21 21 21
23 23 24 23 23 23 22 22 22 22 22 22 22 21 21 21 21 21 22 22 22 22 22 22 23 23 24 24 24 23 22 22 23 23 23 23 23 23 23 23 23 22 22 22 22 22 22 21 21 21 21 21 21 20 20 20 20 20 20 20 20 20 20 20 20 20 20 21 21 22 21 20 21 21 21 21 21 21 21 21 21 21 21 21 21
23 23 23 23 23 23 23 23 22 22 22 22 22 22 21 21 21 22 22 22 22 23 22 22 23 24 23 23 24 24 23 23 23 23 23 23 24 23 22 22 22 22 22 22 22 22 21 21 20 20 20 21 21 21 20 20 19 19 19 19 20 20 20 20 20 20 20 21 21 21 21 20 20 20 20 20 21 21 21 21 21 21 21 21 21
24 24 23 23 23 23 23 23 22 22 22 22 22 22 22 22 21 21 22 22 23 23 22 22 23 23 23 23 24 24 24 23 24 23 22 23 24 23 22 22 22 21 21 21 21 21 21 20 20 20 20 20 20 20 20 20 19 19 19 19 19 19 19 19 19 20 20 20 20 20 20 20 20 20 20 20 20 21 21 21 21 21 21 21 21
24 24 23 23 23 23 23 23 23 22 22 22 22 22 22 21 21 21 21 22 23 23 22 22 22 22 23 23 23 23 23 23 23 23 22 23 24 23 22 22 22 21 21 21 21 21 21 20 20 20 20 20 20 20 20 20 19 19 19 19 19 19 19 19 19 19 20 20 19 20 20 20 20 20 20 20 20 20 20 21 21 21 21 21 21
23 23 23 24 23 23 23 23 23 22 22 22 22 22 22 21 21 21 21 21 22 22 23 22 22 22 22 22 22 22 22 22 22 22 23 23 24 23 23 22 22 21 21 21 21 21 21 21 20 20 20 20 20 20 20 19 19 19 19 19 19 19 19 19 19 19 20 20 19 19 19 19 19 20 20 20 20 20 20 20 20 20 21 21 21
24 23 23 23 23 23 23 23 23 22 22 22 22 22 21 21 21 21 21 21 21 22 23 23 22 22 22 22 22 22 22 22 22 23 23 23 23 24 24 23 22 22 22 21 21 21 20 20 20 20 20 20 20 20 20 19 19 19 19 19 19 19 20 20 20 20 20 20 20 20 19 19 19 19 19 20 20 20 20 20 20 20 20 20 20
24 23 23 23 23 23 23 23 23 22 22 22 22 22 21 21 21 21 21 21 21 21 22 23 23 22 22 22 21 21 22 22 22 22 23 23 23 24 24 23 22 22 22 22 22 21 20 20 20 20 20 20 19 20 20 20 19 19 19 19 19 19 19 20 20 20 20 20 20 20 20 20 20 20 19 19 19 20 20 20 20 20 20 20 20
23 23 23 23 23 23 23 23 23 23 22 23 23 22 22 21 21 21 21 21 21 21 21 22 22 22 21 21 21 22 22 22 22 22 22 22 23 24 24 23 23 22 22 22 22 21 21 20 20 20 20 20 20 20 20 20 19 19 19 19 19 19 19 19 19 20 20 20 20 20 20 20 20 20 20 20 20 20 20 19 20 20 20 20 20
23 23 23 23 23 23 24 23 23 23 23 23 23 22 22 22 21 21 21 21 21 21 21 21 22 22 21 21 22 22 22 22 22 22 22 22 22 23 24 24 23 23 22 22 21 21 21 20 20 20 20 20 20 20 20 19 19 19 19 19 19 19 19 19 19 19 20 20 20 20 20 20 20 20 20 20 20 20 20 20 20 20 20 20 20
24 24 23 23 23 23 24 23 23 23 22 22 22 22 22 22 22 21 21 21 21 21 21 22 21 21 21 22 22 22 22 22 22 22 22 23 22 23 24 23 23 23 22 21 21 21 21 20 21 21 20 20 20 20 20 19 19 19 19 19 19 19 19 19 19 19 20 20 20 20 20 20 20 20 20 20 20 20 20 20 20 20 20 20 20
24 24 24 24 24 23 23 23 23 22 22 22 22 22 22 22 22 21 21 21 21 21 21 21 22 21 21 22 22 22 22 21 22 22 22 22 22 22 23 23 22 23 23 22 21 21 21 21 21 21 20 20 20 20 19 19 19 19 19 19 19 19 19 19 19 19 19 19 20 20 19 19 19 19 19 19 19 20 20 20 20 20 20 20 20
24 24 24 24 24 23 23 22 22 22 22 22 22 22 22 22 22 21 22 21 21 21 21 22 22 21 22 22 22 22 22 21 21 21 21 21 21 22 23 22 22 22 22 22 21 21 21 21 21 21 20 20 20 19 19 20 20 19 18 18 19 19 19 19 19 19 19 19 19 19 19 19 19 19 19 19 19 19 19 19 19 19 19 20 20
24 24 24 24 23 23 23 22 22 22 22 22 22 22 21 22 22 22 22 22 21 21 21 22 22 22 22 22 22 22 22 22 21 21 21 22 22 22 22 22 22 23 23 22 22 22 22 21 21 21 20 20 20 20 19 20 20 19 19 19 18 19 19 19 19 19 19 19 19 19 19 19 19 19 19 19 18 18 18 18 19 19 19 19 19
24 24 24 24 23 23 22 22 22 22 21 21 21 21 21 21 21 22 22 22 21 21 21 21 21 21 21 21 21 22 22 22 21 21 21 22 22 22 21 21 22 22 23 23 22 22 22 22 22 21 21 20 20 20 19 19 19 19 18 18 18 18 18 19 19 19 19 19 19 19 19 19 19 19 19 19 18 18 18 18 18 18 18 18 19
24 24 24 23 23 23 22 22 22 22 21 21 21 22 21 21 21 21 22 22 21 21 21 21 21 21 21 21 21 21 22 21 21 21 21 21 21 21 21 21 21 21 22 22 23 23 23 23 23 22 20 20 20 20 19 19 19 18 18 18 19 19 18 18 18 19 19 19 19 19 19 19 19 19 19 18 18 18 18 18 18 18 18 18 18
24 24 23 23 23 22 22 22 22 22 22 21 21 22 21 21 22 21 22 22 21 21 21 21 21 21 21 21 21 21 21 21 21 21 21 20 20 20 21 21 21 21 21 21 22 23 23 23 23 22 20 19 19 19 19 19 18 18 18 18 19 19 18 18 18 18 19 19 19 19 19 19 19 19 18 18 18 18 18 18 18 18 18 18 18
24 23 23 23 22 22 22 22 22 22 22 22 21 21 21 22 22 22 22 22 22 21 21 21 21 21 21 21 21 21 21 21 21 21 21 20 20 21 21 21 21 21 21 21 21 22 23 22 22 22 21 20 20 20 20 19 19 18 18 18 18 18 18 18 18 18 19 19 19 19 19 19 19 19 18 18 18 18 18 18 18 18 18 18 18
23 23 23 23 23 22 22 22 22 22 22 22 21 21 21 21 22 22 22 22 22 22 21 21 21 21 21 21 21 21 21 21 21 21 21 20 20 21 21 21 21 21 21 21 21 22 22 22 22 22 21 21 20 20 20 20 19 18 18 18 18 18 18 18 18 18 18 18 19 19 19 19 19 19 18 18 18 18 18 18 18 18 18 18 18
23 22 23 23 22 22 22 22 22 22 22 22 22 21 21 21 21 22 22 22 22 22 22 22 22 22 21 21 21 21 21 21 21 21 21 21 21 21 21 21 21 21 21 21 21 21 22 22 22 22 21 21 20 20 20 20 20 19 18 18 18 18 18 18 18 18 18 18 18 18 19 19 18 18 18 18 18 18 18 18 18 18 18 18 18
22 22 22 22 22 22 22 22 22 22 21 21 21 21 21 21 21 21 22 22 21 21 21 21 22 22 22 21 21 22 21 21 21 21 21 21 21 21 21 21 21 21 20 21 21 21 21 21 21 22 21 21 20 20 19 20 20 20 19 18 18 18 18 18 18 19 19 18 18 18 18 18 18 18 18 18 18 18 18 18 18 18 18 18 18
23 22 22 22 21 21 22 21 21 21 21 21 21 21 21 21 21 21 21 21 21 21 21 21 21 21 22 22 22 22 21 20 21 21 22 22 21 21 21 21 21 20 20 20 20 21 21 21 21 21 21 21 21 20 20 20 20 20 19 19 19 19 19 19 19 19 19 19 18 18 18 18 18 18 18 18 18 18 18 18 18 18 18 18 18
22 23 22 22 22 21 21 21 21 21 21 21 21 21 21 21 21 21 21 21 21 21 22 21 21 22 22 22 22 22 22 21 21 22 22 21 21 21 21 21 21 20 20 20 20 20 21 21 21 21 21 21 21 21 21 20 20 19 19 19 19 19 19 19 19 19 19 19 18 18 18 18 18 18 18 18 18 18 18 18 18 18 18 18 18
22 23 22 22 21 21 21 21 21 21 20 21 21 21 21 21 21 21 21 21 21 21 21 21 22 22 22 22 22 22 22 22 22 22 21 21 21 21 21 21 21 20 20 20 20 20 20 20 20 21 21 21 21 21 21 20 20 20 19 19 19 19 19 19 19 19 19 19 18 18 18 18 18 18 18 18 18 18 18 18 18 18 18 18 18
21 21 22 21 21 21 21 21 21 20 20 20 21 21 21 21 21 21 21 21 21 21 21 21 21 21 22 22 22 22 23 23 22 22 22 21 21 21 21 21 21 20 20 20 20 20 20 20 20 20 20 20 20 20 20 21 21 20 20 19 20 20 19 19 19 19 19 19 19 19 18 18 18 18 18 18 18 18 18 18 18 18 18 18 18
22 22 22 22 22 21 21 21 21 20 20 20 20 21 21 21 21 21 21 21 21 21 21 21 21 21 21 22 22 22 22 23 22 22 22 21 21 21 20 21 21 21 20 20 20 20 20 20 20 20 20 20 20 20 20 20 20 20 20 20 20 20 19 19 19 19 19 19 19 19 18 18 18 18 18 18 18 18 18 18 18 18 18 18 18
23 22 22 23 23 22 21 21 21 21 20 20 20 20 21 21 21 21 21 21 21 21 21 21 21 22 22 22 22 22 22 22 22 22 21 21 21 21 20 20 20 20 20 20 20 20 20 20 20 20 19 19 20 20 20 20 20 20 19 20 20 19 20 19 19 19 19 19 19 18 18 18 18 18 18 18 19 19 19 18 19 19 18 18 18
24 23 23 24 24 22 21 21 20 21 20 20 20 20 20 21 21 21 21 21 21 21 21 22 22 22 22 22 23 23 23 22 22 21 21 21 21 21 20 20 20 20 20 20 20 20 20 20 20 20 20 19 19 20 20 20 20 20 20 20 20 20 20 19 19 19 19 19 18 19 19 19 19 19 19 19 19 19 19 19 19 19 19 19 19
24 23 23 24 24 22 21 20 20 20 20 20 20 20 20 20 20 20 21 21 21 21 22 22 22 21 21 22 22 22 22 22 21 21 21 21 21 21 21 21 21 21 21 20 20 20 20 20 20 20 20 20 20 20 20 20 20 20 20 20 20 19 19 19 19 19 19 19 19 19 19 19 19 19 19 19 19 19 19 19 19 19 19 19 19
24 23 23 24 23 22 20 19 20 20 20 20 20 20 21 20 20 20 20 21 21 21 21 22 21 21 21 21 21 21 21 21 21 21 21 21 21 21 21 21 21 21 21 20 20 20 20 20 20 19 19 19 19 19 20 20 20 20 20 19 19 19 19 19 19 19 19 19 18 18 18 18 18 18 19 19 19 19 19 19 20 20 20 19 19
24 23 23 23 22 20 19 19 20 19 20 21 21 21 21 21 21 21 20 21 21 21 21 21 21 21 21 21 21 21 20 19 20 20 20 20 20 21 21 20 20 20 20 20 20 20 19 20 20 19 19 19 19 19 19 20 19 19 19 18 18 18 18 18 19 18 18 18 18 18 18 18 18 18 18 18 19 19 19 20 20 20 19 19 18
24 23 22 21 20 19 19 20 20 20 20 21 21 21 21 21 21 21 20 20 20 21 21 21 20 20 20 20 20 20 20 19 19 19 19 19 19 20 20 20 20 20 20 19 19 19 19 19 19 19 19 19 19 19 19 19 18 18 18 18 18 18 18 18 18 18 18 17 17 17 17 18 18 18 18 18 19 19 19 20 19 19 19 18 18
23 21 21 20 19 19 19 20 20 20 20 21 21 21 20 20 20 20 20 20 20 20 20 20 19 19 19 20 20 19 19 19 18 18 19 19 19 18 18 19 19 19 19 19 18 18 18 18 18 18 18 18 18 18 18 17 17 17 17 17 17 17 17 17 17 17 17 16 16 17 17 18 18 18 19 19 19 19 19 19 19 18 18 18 17
21 20 20 20 19 19 19 20 20 20 20 20 20 20 20 20 20 20 20 20 20 19 19 19 19 19 19 19 18 18 18 18 17 17 18 18 18 17 17 18 19 19 19 18 18 18 17 17 17 18 18 17 17 17 17 16 16 16 16 16 16 16 16 16 16 16 16 16 16 16 17 18 18 18 19 20 20 19 19 19 18 18 17 17 17
21 21 20 20 20 20 20 20 20 20 20 20 20 20 20 20 20 20 20 20 19 19 19 19 19 19 18 18 18 17 17 17 17 17 17 17 17 17 17 18 19 19 19 18 18 17 17 17 17 17 17 17 16 16 15 15 15 15 15 15 15 15 15 15 15 16 16 17 17 17 17 18 19 19 19 19 19 19 18 18 17 17 17 17 16
21 21 20 20 20 20 20 20 20 20 20 20 20 20 20 20 20 20 19 19 19 19 19 19 18 18 18 17 17 17 17 17 17 17 17 17 17 17 17 18 18 18 19 18 18 17 17 17 16 16 16 15 15 15 14 14 14 14 14 14 14 15 15 15 16 17 17 18 18 18 18 18 18 18 19 19 18 18 17 17 17 17 16 16 16
22 21 21 21 21 20 20 20 20 20 19 20 20 20 20 21 20 20 19 19 19 19 18 19 19 18 18 18 18 18 17 16 17 17 17 17 17 17 17 18 18 18 18 18 18 17 17 16 16 15 15 14 14 14 14 14 14 13 13 13 14 15 16 16 16 17 17 18 18 18 18 18 18 18 18 18 17 17 16 16 16 16 16 16 17
22 22 22 21 21 20 20 20 20 20 20 20 20 20 20 21 21 20 19 18 18 18 18 18 18 18 18 18 18 17 16 16 16 16 16 16 16 17 17 17 17 18 18 18 18 17 16 16 16 15 15 14 14 14 14 14 15 14 13 13 14 15 16 16 17 17 17 18 17 17 17 17 17 17 17 17 16 16 16 16 15 16 16 16 17
22 22 22 22 21 20 20 20 20 20 21 20 20 21 21 22 22 21 19 19 19 18 17 17 18 17 17 17 17 17 16 16 16 16 16 16 16 16 17 17 17 18 18 17 17 16 16 15 15 15 15 15 14 14 15 15 15 15 14 14 15 15 16 16 17 17 17 18 17 16 16 16 16 16 16 15 15 15 15 15 15 16 16 17 17
Height
859 859 859 859 858 858 858 858 858 858 859 859 859 859 859 859 859 858 858 858 857 856 856 855 855 854 854 853 852 851 850 850 849 849 849 849 849 848 847 848 848 847 847 846 845 844 845 846 848 851 853 855 857 859 860 862 863 864 865 865 866 866 866 866 866 866 867 867 868 869 870 870 871 872 873 874 874 874 875 876 876 876 877 877 877
857 857 857 857 857 857 857 857 857 857 858 858 858 859 859 858 858 858 857 857 856 856 855 855 854 854 853 853 852 851 850 849 848 848 848 848 848 847 847 846 847 847 846 846 845 843 844 846 848 850 852 852 854 856 859 861 863 864 864 865 865 865 865 865 865 865 866 866 867 868 868 869 870 870 871 872 873 873 873 874 875 875 876 876 876
856 856 855 855 856 856 856 856 856 856 857 857 858 858 858 858 857 857 857 856 856 855 855 854 854 853 852 852 851 850 850 849 848 847 847 847 847 847 846 846 846 846 846 846 845 845 845 847 848 849 850 851 853 855 858 860 863 864 864 864 864 864 864 864 864 864 865 865 865 866 867 868 868 869 870 870 871 871 872 872 873 874 874 875 875
855 855 855 855 855 854 854 855 855 855 856 856 857 857 857 857 856 856 856 856 855 855 854 854 853 852 852 851 851 850 849 848 848 847 846 846 846 846 845 845 845 845 845 845 846 846 848 849 848 849 850 852 854 856 856 858 860 862 863 863 863 862 862 862 862 863 863 864 864 865 866 866 867 868 868 869 869 870 870 871 871 872 873 873 874
854 854 854 854 853 853 854 854 854 855 855 855 855 856 855 855 856 856 855 855 855 854 854 853 852 852 851 851 850 849 849 848 847 846 846 846 845 845 845 845 844 844 844 845 846 847 849 849 847 848 850 852 854 855 855 855 857 859 861 861 861 861 860 861 861 861 862 862 863 863 864 865 866 866 867 867 867 868 869 869 870 870 871 872 872
854 854 854 853 853 853 853 853 854 854 854 854 855 855 854 855 855 855 855 854 854 854 853 852 852 851 851 850 849 849 848 847 847 846 846 845 845 844 844 843 843 844 843 843 845 847 848 847 846 848 849 852 853 854 854 854 856 858 859 860 859 859 859 860 860 860 860 861 861 862 862 863 864 864 865 865 866 866 867 867 868 869 869 870 871
853 853 853 852 852 852 852 852 853 853 853 854 855 854 854 854 854 854 854 854 853 853 853 852 851 850 850 850 849 848 848 847 847 846 846 845 844 843 843 843 842 843 843 843 843 845 847 847 846 847 848 849 850 851 852 853 855 856 857 858 857 858 859 859 859 859 859 859 860 860 861 861 862 863 863 863 864 864 865 866 866 867 868 868 869
851 851 851 851 851 851 851 851 852 852 852 853 854 854 853 853 853 854 853 853 853 852 852 851 851 850 850 849 849 848 847 847 846 846 845 845 844 843 842 842 841 842 842 843 843 844 846 847 847 846 847 847 847 848 850 851 853 854 855 855 855 855 856 856 855 855 856 857 858 859 859 860 860 860 861 862 862 862 863 864 864 865 866 866 867
849 850 850 850 850 850 850 851 851 851 852 853 853 853 853 853 853 853 853 853 853 852 851 851 850 850 849 849 848 848 847 847 846 846 845 845 844 843 842 841 841 841 841 842 843 843 844 846 847 847 846 847 847 848 848 850 852 853 853 853 852 851 852 853 852 853 854 855 856 857 858 858 859 858 859 860 860 860 861 861 862 863 864 865 865
848 849 849 849 849 849 850 850 849 849 852 852 852 852 852 853 853 853 853 853 852 852 851 851 850 849 848 848 848 848 847 847 846 846 845 845 844 844 843 842 841 841 841 841 842 842 842 843 845 846 846 847 847 848 849 850 851 851 851 851 850 849 849 850 850 851 852 853 854 855 856 857 857 857 857 858 858 859 859 859 860 861 862 863 863
847 848 848 848 847 848 849 849 848 849 850 851 851 852 852 852 852 852 852 852 852 851 851 850 850 849 848 848 848 848 847 847 846 846 846 845 845 844 843 843 842 842 842 841 841 842 842 842 843 844 844 846 847 848 848 849 850 850 849 849 849 848 847 847 848 849 850 852 853 854 855 855 856 856 856 856 856 857 858 858 858 859 860 860 861
845 847 846 846 846 847 848 848 848 848 849 850 851 851 851 851 852 852 851 851 851 850 850 850 849 848 848 848 848 848 847 847 847 846 846 845 845 845 844 843 843 843 842 842 842 842 842 842 842 842 843 844 845 846 847 847 848 848 848 848 847 847 846 846 846 847 849 850 851 852 853 853 853 854 854 854 854 855 856 856 857 857 857 858 859
844 846 845 845 845 846 846 847 848 848 848 849 850 850 850 850 851 851 851 850 849 849 849 849 849 848 847 846 846 847 847 847 847 846 846 846 845 845 845 844 844 844 843 843 842 842 842 842 842 842 842 843 844 845 845 846 846 846 846 846 846 846 845 845 846 846 848 849 849 848 848 849 850 850 851 851 852 852 853 854 854 855 855 856 857
843 844 843 843 844 844 844 846 847 848 848 849 849 849 849 849 850 850 849 849 849 848 849 848 848 847 846 846 845 845 847 846 846 846 846 846 846 846 846 846 845 845 844 844 843 843 843 843 843 843 842 843 843 843 844 845 846 846 845 845 845 845 844 844 845 845 846 845 844 844 844 846 847 847 848 849 849 850 850 851 852 852 853 854 854
842 841 841 842 843 843 843 845 847 847 847 847 847 847 848 848 849 848 848 848 848 847 848 848 846 846 847 847 845 844 846 846 845 846 847 846 846 847 848 848 847 847 846 846 845 845 845 844 844 844 843 843 843 843 844 844 845 844 845 845 844 844 844 843 843 843 843 843 842 842 843 844 845 845 846 846 846 847 848 848 849 850 850 851 852
840 840 840 841 841 842 843 845 845 845 845 845 846 846 847 847 847 848 848 847 846 846 847 847 847 846 846 846 845 845 846 846 845 846 847 847 846 847 849 849 849 849 848 847 847 846 846 846 845 845 845 844 844 844 844 844 844 844 844 843 843 843 842 842 842 842 842 842 842 841 841 842 843 843 843 844 844 844 845 846 846 847 847 848 849
838 839 839 839 840 842 843 843 843 843 844 844 845 845 846 846 847 847 847 847 846 846 846 847 847 847 846 846 846 847 847 846 846 847 847 847 847 848 850 851 850 850 850 849 849 848 847 847 847 846 846 845 845 845 844 844 844 843 843 842 842 842 841 841 841 841 841 841 841 840 840 840 840 841 841 841 842 842 843 843 844 844 845 845 846
836 837 838 838 840 841 841 841 841 842 843 844 844 845 845 846 847 847 847 847 847 846 846 846 846 846 846 846 846 847 847 847 847 848 847 846 847 847 849 851 851 851 851 850 850 849 849 848 848 847 846 846 845 845 845 844 844 843 842 841 841 841 840 840 840 840 840 840 840 839 839 839 839 839 839 839 839 840 840 841 841 842 842 843 843
835 836 836 837 839 839 839 840 841 841 842 843 844 844 845 846 846 846 846 847 847 847 846 845 845 846 846 845 845 846 846 846 847 847 847 847 847 847 847 849 851 851 851 851 850 850 850 849 849 848 847 846 846 845 845 845 844 844 842 841 841 840 840 839 839 839 839 839 838 838 838 838 838 838 838 838 838 838 838 839 839 839 839 840 840
834 834 835 836 837 838 839 840 841 841 842 843 843 844 844 845 846 846 846 847 847 847 847 846 845 845 845 846 846 846 846 846 846 846 847 848 847 845 846 848 849 850 850 851 850 850 850 849 849 848 847 846 846 845 845 844 844 844 843 842 841 840 839 839 838 838 838 837 837 837 837 836 836 836 836 836 836 836 836 837 837 837 837 837 837
832 833 834 836 837 838 839 840 841 841 842 842 843 843 844 844 845 845 846 846 847 847 847 847 846 845 846 846 846 846 845 845 846 846 847 847 847 845 845 847 847 848 849 849 850 850 849 849 848 848 847 846 845 845 844 844 843 843 842 841 840 839 839 838 838 837 837 836 836 836 835 835 835 834 834 834 834 834 834 835 834 834 834 834 834
831 832 834 835 837 838 839 840 841 841 842 842 842 843 843 844 844 844 845 846 847 847 847 847 847 846 846 846 846 846 846 846 846 846 846 847 847 845 844 844 845 846 847 848 849 848 848 848 847 847 846 846 845 844 844 843 842 841 840 839 838 838 837 837 836 836 836 835 835 834 834 833 833 832 832 832 832 832 832 832 832 832 832 832 832
831 832 834 835 836 838 839 840 841 841 842 842 843 842 842 843 843 843 844 845 846 847 847 847 847 847 846 846 846 846 847 847 846 846 846 845 846 845 843 843 844 845 845 846 847 847 847 846 846 845 845 845 844 843 843 842 841 840 839 838 837 836 836 835 835 835 834 834 834 833 833 832 831 831 830 830 830 830 830 830 830 830 830 829 829
831 832 833 835 836 838 839 840 840 841 842 842 842 842 842 842 842 842 843 844 845 846 846 846 847 847 847 846 847 846 847 847 847 847 847 846 846 845 843 843 844 843 843 844 844 844 844 844 844 844 844 843 843 842 842 841 840 838 837 837 836 835 834 834 833 833 833 832 832 831 831 830 830 829 829 828 828 827 827 827 827 827 827 827 827
830 832 833 835 836 837 839 839 840 841 841 842 842 842 842 842 842 842 842 843 844 845 845 846 846 847 847 846 846 846 846 847 847 847 846 846 846 844 843 842 842 841 840 841 842 842 842 842 842 843 843 842 841 841 840 840 838 837 836 835 834 833 833 832 832 831 831 830 830 830 829 829 828 827 827 826 826 825 825 824 824 823 823 823 823
830 832 833 835 836 837 838 839 840 841 841 842 842 842 843 843 842 842 842 843 843 844 845 845 846 846 846 847 846 846 846 846 846 846 845 845 844 843 842 841 840 838 838 838 839 838 838 839 839 840 841 841 840 839 838 838 837 835 834 833 833 832 831 831 830 829 829 829 828 828 827 827 826 825 825 824 823 823 822 821 821 820 819 819 819
830 832 834 835 836 837 838 839 840 841 842 842 843 843 843 843 843 843 842 843 843 843 844 844 845 846 846 846 846 846 845 845 845 845 845 844 843 842 841 840 839 837 835 835 835 835 835 835 836 836 837 838 838 838 836 836 835 834 832 831 831 830 829 828 828 827 827 826 826 826 825 825 824 823 822 822 821 820 819 818 818 817 816 815 815
830 832 833 835 836 837 838 839 840 841 841 842 843 843 843 844 843 843 843 843 843 843 843 844 844 845 845 846 846 845 845 845 845 845 844 844 843 842 841 840 839 837 835 833 832 831 831 832 832 832 833 834 835 835 834 834 833 832 830 830 829 828 826 825 825 825 824 824 824 823 823 822 821 821 820 819 818 817 816 815 814 813 813 812 811
829 830 832 833 835 836 837 838 839 840 841 842 842 842 843 843 843 843 843 842 842 842 843 843 843 844 844 844 845 845 844 844 844 844 843 843 842 841 840 839 839 837 835 834 831 829 829 830 829 829 830 831 831 832 831 831 830 830 829 827 826 825 824 823 822 822 821 821 820 820 820 819 818 818 817 815 814 813 813 812 811 810 809 808 807
827 828 830 831 833 835 836 837 838 839 840 840 841 841 841 842 842 842 842 841 841 842 842 842 842 843 843 843 843 843 843 843 843 843 842 842 841 840 840 838 838 836 835 833 831 828 828 828 828 828 828 828 828 828 828 828 827 827 826 825 824 823 822 820 819 818 818 818 817 817 816 816 815 814 813 812 811 810 809 808 807 806 805 804 803
826 827 829 830 832 833 834 836 837 838 839 839 839 840 840 840 840 840 840 840 840 840 841 841 841 841 841 841 841 841 841 841 841 841 841 841 840 839 838 837 836 835 834 832 830 828 827 827 826 826 826 826 826 826 825 825 824 824 823 822 821 820 818 817 815 815 814 814 813 813 813 812 811 811 810 809 808 807 805 804 803 802 801 800 799
825 827 829 830 831 832 833 834 835 836 837 837 838 838 838 838 838 838 838 838 839 838 839 839 839 839 839 839 839 839 839 839 839 839 839 839 838 837 837 836 835 834 833 831 829 827 826 826 824 824 824 824 824 824 823 822 821 820 819 819 818 816 815 814 813 812 810 810 809 809 809 808 808 807 806 805 804 803 802 801 800 798 797 796 795
826 828 830 830 831 831 832 833 834 835 835 835 836 836 836 836 836 837 837 837 837 837 837 837 836 837 837 836 837 837 837 837 836 836 836 836 836 836 835 834 833 833 831 830 828 826 825 824 823 822 822 821 821 821 821 820 819 818 816 816 815 814 813 811 810 809 808 807 806 805 805 805 804 803 802 801 800 799 798 797 796 794 793 792 791
825 828 830 831 831 831 832 833 833 833 833 833 834 834 834 834 834 835 835 835 835 835 834 834 834 834 834 834 834 834 834 834 834 834 833 834 834 833 833 832 831 830 830 828 826 825 823 822 821 820 819 819 818 817 817 816 815 815 814 813 812 811 810 808 807 806 805 804 803 802 802 801 800 799 798 797 796 795 794 793 791 790 789 787 786
827 828 831 831 831 830 830 831 831 832 832 831 831 832 832 832 831 831 832 832 832 832 832 832 832 832 832 831 831 831 832 832 832 832 831 831 831 831 830 829 829 828 827 826 824 823 822 821 820 819 817 816 815 814 814 812 812 811 810 809 809 808 806 805 804 802 801 801 800 799 798 796 795 794 793 792 791 790 789 788 787 785 784 782 780
830 829 831 832 831 829 828 829 829 829 828 828 828 828 828 828 828 828 829 829 830 830 829 829 829 829 829 829 829 829 829 829 830 830 829 829 829 828 828 827 826 825 824 824 822 821 820 819 818 817 816 814 813 811 810 809 808 807 806 806 804 803 802 801 800 799 798 797 796 794 793 791 790 789 787 786 785 784 783 782 781 780 778 777 775
829 829 830 830 828 826 824 823 824 824 824 824 824 824 825 825 825 826 826 827 827 827 827 827 826 827 827 827 827 828 827 827 827 827 827 827 827 826 825 824 823 822 821 821 820 819 817 816 815 815 814 812 810 809 808 806 804 803 803 802 800 799 798 798 797 796 794 793 792 791 789 787 785 784 782 781 779 778 777 776 775 774 772 771 769
820 821 822 822 820 817 815 815 817 818 819 820 821 821 822 823 823 824 824 825 825 826 825 825 825 825 825 825 825 825 825 825 825 825 825 825 825 824 822 820 820 820 819 818 817 816 815 813 812 812 811 809 808 807 805 804 802 800 799 797 796 796 795 794 793 792 791 790 788 787 785 783 781 779 777 775 774 772 771 769 768 767 766 764 763
806 807 808 808 808 807 806 807 809 812 814 817 818 818 819 820 821 822 823 823 823 824 824 823 823 823 823 823 822 822 822 822 822 822 823 823 823 822 821 819 818 818 817 816 815 813 812 811 809 809 808 807 806 805 803 802 800 797 796 794 793 792 792 791 789 788 787 785 783 781 780 778 776 774 772 770 768 766 765 763 761 760 760 758 756
791 791 791 792 793 796 798 800 803 806 809 811 814 815 816 817 819 820 821 821 821 821 821 821 821 821 821 820 820 819 819 820 820 820 820 820 820 820 819 818 817 816 815 814 813 811 809 808 807 806 805 804 803 802 801 799 797 794 793 792 790 788 788 788 786 785 783 781 778 776 775 774 771 769 767 765 763 761 759 757 756 754 753 752 750
780 781 782 784 787 790 792 796 800 803 805 807 809 811 813 814 817 818 819 819 819 819 819 819 819 819 819 818 818 817 817 818 818 817 817 817 817 817 817 816 815 813 812 812 811 809 807 805 804 803 803 801 801 800 798 796 794 791 790 789 787 786 785 784 783 782 780 777 774 772 771 771 768 766 763 760 757 756 754 752 750 749 747 747 746
776 779 781 783 785 788 792 797 801 802 803 804 806 808 809 812 814 816 816 816 816 817 817 817 817 817 817 817 816 816 816 816 816 815 815 815 814 814 814 813 812 810 809 809 809 807 805 803 802 801 800 800 799 798 795 792 791 789 787 786 785 783 782 780 778 777 777 774 771 768 767 768 765 760 758 755 752 751 749 746 745 744 742 741 741
773 776 778 780 783 788 794 798 800 800 800 801 802 805 806 809 811 813 813 813 813 814 814 814 815 815 814 814 814 813 814 814 814 812 812 812 812 811 811 811 810 808 806 805 805 804 803 801 799 799 798 798 797 796 793 790 788 787 786 784 783 781 780 777 774 773 772 772 769 764 762 763 761 755 752 750 748 746 744 741 739 738 736 735 734
766 770 775 778 782 786 791 794 797 797 797 797 799 802 803 805 807 809 810 810 810 811 811 811 812 812 812 811 810 809 810 810 810 809 808 809 809 808 808 808 807 805 802 801 801 801 800 798 797 797 796 795 794 793 791 789 787 785 784 782 781 779 778 776 772 769 768 768 766 760 756 757 756 751 747 745 744 741 738 736 734 733 730 729 727
762 767 772 776 780 783 786 790 793 795 795 795 796 798 800 801 803 804 806 807 807 808 808 808 809 810 809 808 807 806 807 807 808 808 806 804 804 806 806 804 803 801 800 798 797 797 797 796 795 794 794 793 791 790 789 788 786 783 781 780 778 777 776 773 770 767 766 765 763 757 751 751 752 748 742 740 738 736 733 731 729 727 724 722 720
761 765 770 774 777 780 783 786 790 792 793 793 793 796 798 799 800 800 801 803 803 804 805 805 806 806 806 806 805 804 804 805 806 806 804 802 802 804 804 802 800 798 797 795 794 794 793 793 792 792 791 791 789 787 787 786 784 782 780 778 776 775 773 770 767 765 763 762 760 755 748 746 747 743 737 734 732 730 728 725 723 720 717 713 711
761 764 768 771 774 778 781 784 788 789 789 790 792 794 795 797 797 797 798 799 800 801 802 802 803 804 804 803 802 801 802 802 802 802 801 801 800 801 800 799 797 796 794 793 792 792 791 791 791 790 789 788 787 785 784 783 781 780 778 777 775 772 770 767 764 762 760 758 757 752 744 741 742 738 732 730 728 725 723 720 716 713 710 706 703
762 764 767 769 772 777 779 782 785 786 787 788 790 792 793 795 795 795 795 796 796 798 799 800 800 801 800 800 799 799 799 799 798 798 798 798 798 798 797 796 795 793 792 791 790 789 789 788 788 787 787 785 784 782 781 780 778 777 776 774 772 770 767 764 760 757 755 753 752 749 742 737 738 734 728 726 724 719 716 714 709 706 703 699 695
762 764 766 769 771 775 777 779 781 783 783 784 788 790 791 792 792 791 792 794 795 797 798 797 796 796 796 795 795 795 797 798 796 795 795 795 795 796 795 793 792 791 789 789 787 786 785 785 784 784 783 782 781 779 778 776 775 775 774 772 769 766 763 760 756 753 750 748 747 746 741 735 733 731 725 721 719 714 710 707 703 699 695 691 688
762 764 766 768 771 773 775 776 777 779 780 782 785 787 787 787 787 787 789 791 794 797 799 797 795 794 792 791 791 792 795 796 795 794 793 793 793 794 793 791 790 789 788 787 785 784 783 782 782 781 780 779 777 776 774 773 772 772 770 768 766 764 760 757 753 749 746 743 743 743 739 733 730 727 722 716 712 708 705 702 697 693 689 684 681
761 763 765 768 770 771 772 773 774 776 778 780 782 784 784 784 784 785 787 789 790 793 796 796 794 793 791 790 789 790 792 793 792 792 791 791 792 792 791 790 788 787 786 785 784 783 782 781 781 780 778 777 775 773 771 770 769 768 767 765 763 761 758 754 751 747 741 738 739 739 736 730 727 724 720 715 706 697 696 697 693 687 683 679 675
Wind_Speed
8 8 7 7 7 7 6 6 5 4 4 4 4 4 4 4 4 5 6 6 8 8 8 8 9 9 9 9 9 9 9 9 9 8 8 7 6 7 7 5 5 6 7 8 10 11 9 8 11 12 13 14 15 14 14 14 15 16 16 15 16 15 15 13 13 13 12 12 13 13 13 13 13 13 12 12 12 11 12 12 12 12 12 12 11
8 8 9 8 7 8 8 7 6 5 5 5 4 4 5 4 4 6 6 7 7 7 7 8 9 8 8 8 9 9 9 9 9 9 8 8 7 7 7 6 6 6 6 7 8 10 10 8 7 10 14 17 17 16 15 15 15 16 16 16 16 16 16 15 14 13 13 13 13 14 14 14 14 14 14 14 13 13 13 13 13 13 13 13 13
9 7 9 9 8 9 9 8 8 5 4 5 5 4 4 4 4 6 6 6 6 6 7 8 8 7 7 8 8 8 8 9 9 9 8 8 8 7 8 7 7 7 7 7 8 9 9 8 7 9 15 19 19 17 16 16 15 16 17 17 17 17 16 16 15 14 14 14 14 14 15 15 15 15 15 15 15 14 14 13 13 13 13 14 14
10 9 9 9 8 10 10 10 9 5 4 5 5 4 4 4 4 5 6 6 6 6 6 7 7 7 7 7 8 8 8 9 9 9 8 8 8 8 8 7 8 8 7 8 8 8 8 9 10 10 14 16 17 16 16 17 17 16 17 17 17 17 17 18 17 16 15 15 15 15 16 16 16 16 16 16 16 15 15 15 14 14 13 14 14
11 11 11 11 10 10 9 10 9 6 5 5 5 4 4 4 4 5 6 6 7 6 6 6 6 6 7 7 8 8 8 8 8 8 8 8 7 8 8 8 7 8 8 7 8 8 8 9 10 10 11 13 13 14 16 16 16 16 16 16 17 17 18 18 18 18 18 17 16 16 16 17 18 18 17 17 17 17 16 16 16 15 14 14 15
11 12 13 13 10 9 10 9 8 6 5 5 5 4 3 4 5 5 6 6 6 6 6 6 6 6 6 7 7 7 7 7 7 7 7 7 7 7 7 8 7 8 8 7 7 7 7 7 9 8 9 10 11 13 14 13 13 14 15 16 17 17 18 18 18 19 19 19 19 18 18 18 18 19 19 19 19 18 18 18 17 17 16 16 15
12 13 14 14 12 11 12 10 7 6 5 4 5 4 3 4 5 5 6 5 5 5 6 6 6 6 6 6 6 6 7 6 6 6 5 6 6 5 6 6 7 7 6 7 6 5 7 6 7 7 8 9 10 11 12 12 12 13 15 16 16 16 16 17 18 20 20 20 20 20 19 19 19 19 20 20 21 20 20 20 19 19 18 18 17
12 13 14 14 14 13 13 11 7 6 5 4 5 4 3 4 4 4 5 5 5 6 6 6 6 6 6 6 6 5 6 5 5 5 4 5 5 4 5 5 5 5 5 6 5 4 5 7 7 7 7 8 8 9 9 10 11 12 12 13 15 15 15 16 17 20 21 21 21 21 21 21 21 21 21 21 22 22 22 21 21 21 20 20 19
13 13 13 14 15 13 12 11 7 4 4 5 4 3 3 4 4 4 4 5 6 7 7 7 7 6 6 6 5 4 4 4 5 4 4 4 4 4 5 5 5 4 3 4 4 4 3 5 8 9 9 9 9 8 8 9 11 11 10 10 12 15 17 17 17 18 21 21 22 24 24 24 23 22 22 22 23 23 23 22 22 22 22 21 20
13 14 14 15 15 13 11 10 9 8 6 5 4 3 3 4 5 5 4 5 7 7 7 7 7 7 6 6 5 3 3 3 3 4 3 3 4 5 5 6 6 6 5 2 2 2 2 2 5 9 11 12 12 12 11 11 12 12 12 11 12 14 16 17 17 18 20 21 23 24 25 26 26 25 24 23 24 24 24 23 23 22 23 22 22
14 16 16 15 15 15 13 10 10 9 6 3 3 3 3 4 5 6 6 7 7 7 7 7 7 7 7 6 4 3 2 2 3 3 3 4 4 5 4 5 6 7 7 6 5 3 2 1 1 4 8 10 10 11 11 11 11 11 12 12 13 14 15 16 17 19 20 21 22 23 24 25 26 26 26 25 26 26 26 26 25 24 24 23 23
14 16 16 16 16 15 13 10 7 6 4 2 4 4 3 4 6 7 8 8 8 7 6 6 8 7 7 6 4 3 2 1 2 2 3 3 4 5 5 5 6 6 7 7 7 6 5 4 3 0 4 7 6 6 7 8 8 9 10 11 13 14 15 16 16 17 19 19 18 20 22 23 24 25 25 26 27 28 28 28 28 27 26 25 24
16 16 17 18 16 12 10 10 7 5 4 3 3 3 2 3 5 6 7 7 7 7 6 5 8 7 6 6 4 3 2 1 1 2 3 3 4 5 5 6 6 6 6 6 6 6 5 5 4 3 3 4 4 4 4 3 2 4 6 8 10 12 14 15 15 16 16 16 18 19 20 22 23 24 25 25 26 27 28 29 29 29 29 28 27
16 15 15 15 13 9 9 10 8 5 4 3 3 2 2 3 5 6 6 6 6 6 5 5 7 6 5 6 5 4 3 2 1 1 2 3 4 5 5 6 7 7 6 6 6 6 5 5 5 5 5 4 3 4 4 3 3 1 2 3 6 8 10 12 13 14 15 16 19 20 19 19 21 22 23 25 25 26 27 28 29 30 30 30 30
13 11 10 10 9 8 8 8 7 5 2 2 2 2 3 4 5 6 6 6 6 6 5 5 6 5 4 4 4 3 3 3 1 1 2 3 3 5 6 7 8 8 7 7 6 6 6 6 7 6 6 6 5 5 5 5 4 3 1 2 3 4 5 6 7 9 12 16 18 19 18 18 19 19 21 23 25 25 26 28 29 30 31 31 32
11 10 9 8 7 7 7 5 4 2 1 2 3 3 4 5 5 6 6 6 6 4 3 3 4 4 4 3 3 3 2 1 0 1 2 2 3 5 5 6 8 8 8 7 7 7 7 7 7 7 6 6 5 5 5 5 4 3 2 1 2 3 3 3 3 3 7 11 13 16 18 18 19 19 20 20 22 23 25 27 27 28 29 31 32
9 9 8 8 7 7 5 2 1 1 2 3 3 3 4 4 4 4 5 6 5 4 2 2 2 2 3 3 3 3 1 3 3 1 2 1 2 5 5 5 7 7 7 7 7 6 6 6 6 6 6 6 5 5 5 5 4 4 4 2 2 2 3 3 3 3 4 6 7 9 12 14 16 17 19 19 19 20 23 25 26 27 27 28 30
8 8 7 8 8 6 3 1 1 2 2 3 3 3 3 3 3 3 3 4 3 4 3 2 2 2 2 2 2 2 3 4 3 2 1 2 2 3 4 5 5 5 6 6 6 6 5 5 5 6 6 5 5 5 5 5 5 5 5 3 2 2 2 3 3 3 5 6 6 6 7 9 10 13 15 17 18 19 21 23 24 26 27 28 29
8 8 7 7 7 6 3 1 3 3 3 3 3 3 2 2 2 2 2 2 2 4 4 3 2 3 3 2 0 2 3 3 3 3 1 2 1 1 2 4 4 4 5 5 5 5 4 4 4 3 4 4 4 3 4 5 5 5 6 6 5 5 4 3 3 3 5 7 8 9 9 9 10 11 12 14 16 17 19 22 23 24 25 26 28
7 8 8 7 7 5 3 3 3 3 3 3 2 1 1 1 1 2 2 1 2 3 3 3 4 3 2 2 1 1 2 3 3 3 2 2 1 2 3 4 4 4 5 5 5 4 3 3 2 2 2 2 2 2 2 2 2 3 4 6 7 7 7 6 5 4 4 5 7 9 10 11 12 13 14 14 14 15 17 19 21 23 25 25 26
8 8 8 8 7 5 4 4 4 5 4 4 3 1 1 1 1 2 1 1 2 2 3 4 4 2 1 2 1 1 0 1 2 1 2 3 2 2 3 5 4 4 4 5 5 4 2 2 2 2 2 1 1 1 1 1 1 1 2 4 5 5 6 6 6 6 5 6 6 7 8 10 12 13 15 16 17 17 17 18 19 20 23 25 26
9 9 9 8 7 6 5 5 5 6 5 5 4 3 2 2 2 2 1 1 2 2 3 3 3 2 0 1 1 0 1 1 1 1 1 1 3 5 6 6 5 5 5 5 7 5 4 3 3 2 2 2 2 2 2 2 1 2 3 3 3 4 4 5 6 6 6 6 6 7 7 8 10 12 14 16 18 19 20 21 21 21 22 23 25
9 9 9 8 8 7 7 6 6 6 6 5 4 3 4 4 3 2 2 1 1 2 2 3 3 3 2 1 1 2 2 2 2 2 2 3 3 5 7 7 7 8 6 6 7 7 5 5 5 4 4 4 3 2 2 2 2 4 5 3 3 3 3 5 5 6 7 6 6 7 7 7 8 10 12 14 16 18 20 22 23 23 24 24 24
8 8 9 9 9 8 7 7 7 7 7 6 4 4 3 4 4 3 3 2 2 1 2 3 3 4 4 3 3 3 3 4 3 2 3 4 4 5 6 6 6 8 8 7 8 8 8 8 7 6 5 5 4 3 3 3 4 5 7 5 5 5 5 6 6 6 6 6 7 8 9 8 8 9 10 12 14 16 18 20 22 24 25 26 26
9 9 9 9 9 9 8 8 7 7 7 6 5 5 4 4 5 4 4 4 3 3 3 4 4 4 5 4 4 5 5 5 5 5 5 5 5 6 7 7 7 9 8 7 7 8 9 8 7 7 7 6 5 4 5 4 5 7 8 7 7 7 6 7 7 7 7 7 8 10 11 12 11 10 10 11 12 14 16 18 20 22 24 26 27
9 9 10 10 10 9 9 8 8 7 7 6 6 6 5 5 5 5 6 5 5 5 4 5 5 5 6 5 6 6 6 6 6 7 7 7 7 7 7 7 8 10 9 7 7 8 8 7 7 8 7 8 7 6 7 6 6 9 11 10 8 9 10 10 9 9 9 8 9 11 13 14 14 13 12 11 12 13 14 16 18 21 23 25 27
9 9 9 10 9 9 9 9 8 7 7 7 6 6 6 6 6 6 6 6 7 7 7 7 7 7 8 7 8 8 7 7 8 8 8 8 8 8 8 7 7 8 8 8 8 9 8 8 8 8 8 9 9 8 9 8 8 11 13 11 9 11 13 13 12 11 11 10 10 11 13 15 16 15 14 14 13 13 14 15 17 19 21 23 25
8 9 9 9 9 8 9 9 8 8 8 7 7 6 7 7 7 7 7 7 8 8 8 8 8 9 9 9 9 10 8 8 9 9 9 9 9 9 10 9 7 6 6 7 8 9 10 11 10 7 8 9 10 9 10 11 10 11 12 11 10 12 13 14 15 14 13 13 12 13 14 16 17 17 17 16 16 16 16 16 17 18 20 21 23
9 9 9 9 9 9 9 9 9 9 8 8 8 7 7 8 8 8 9 8 8 9 9 9 9 9 9 9 10 10 9 9 9 10 9 10 10 10 10 10 9 7 6 6 7 9 11 11 12 8 5 7 10 11 11 12 11 12 13 12 13 13 13 16 17 16 15 15 15 15 15 17 18 19 19 19 19 18 18 18 18 18 20 21 23
10 10 9 9 9 10 9 9 9 9 9 8 8 8 8 8 8 9 9 9 9 9 9 9 10 9 10 9 10 10 10 9 10 10 10 11 11 11 10 10 11 10 9 8 7 10 12 10 11 12 8 8 11 11 11 12 13 14 14 14 14 14 15 19 20 18 16 16 16 16 16 18 19 21 22 22 22 21 21 21 21 20 20 21 23
12 11 10 10 10 10 10 9 9 9 9 9 9 9 9 8 8 9 10 10 10 10 9 10 10 10 10 10 10 11 11 11 11 11 11 12 11 11 11 11 12 12 13 12 9 9 12 12 12 13 13 13 13 13 12 12 13 14 15 15 15 16 18 20 20 18 17 17 18 17 17 19 20 22 23 24 24 24 24 24 24 23 22 22 23
13 11 10 9 9 9 9 9 9 9 9 10 9 9 9 9 8 9 9 9 10 10 10 10 10 10 10 10 11 11 11 11 12 12 12 11 11 12 12 12 13 13 14 14 11 10 13 14 13 13 13 12 13 14 14 13 12 13 15 15 16 17 18 18 18 18 19 20 20 19 19 20 22 24 25 25 25 25 26 26 26 26 25 24 25
11 9 9 9 8 8 8 8 9 9 9 10 9 9 9 9 9 9 9 10 10 10 9 9 10 10 10 11 12 12 12 13 12 11 11 10 11 12 12 12 13 13 13 14 13 12 14 15 14 14 13 12 12 13 14 14 14 14 14 15 16 17 17 17 17 18 19 21 20 21 22 23 25 27 28 28 27 26 27 28 27 28 28 28 28
10 8 8 9 8 8 9 10 10 10 10 10 10 10 10 10 9 9 10 10 11 10 10 10 10 10 10 11 12 12 13 13 12 11 11 11 11 12 12 12 13 13 12 13 14 13 14 15 15 15 14 13 13 13 14 16 16 15 16 16 16 16 17 17 17 18 19 20 21 22 24 26 28 30 31 30 29 29 28 28 29 30 30 31 31
6 6 8 10 10 10 11 13 14 13 12 13 12 12 11 11 11 11 11 11 12 11 11 10 10 10 11 12 13 13 13 12 12 12 12 12 12 12 13 12 13 14 12 12 14 14 15 15 15 16 16 16 16 16 17 17 17 16 17 16 15 16 16 17 18 19 19 20 22 24 26 28 29 30 31 31 32 31 30 30 32 33 33 34 35
4 3 6 9 10 11 12 15 17 17 16 15 15 15 14 13 13 12 12 12 13 12 12 11 11 11 12 13 13 13 13 12 12 13 13 13 13 13 13 12 12 13 13 12 14 15 15 16 15 15 17 18 18 18 18 19 19 17 16 16 17 17 18 18 18 19 19 20 22 24 26 27 29 30 31 32 32 33 33 34 36 36 37 38 38
3 5 8 12 14 15 16 17 20 21 21 19 18 17 16 15 14 13 13 13 13 13 13 12 12 12 13 14 14 14 14 14 14 14 14 14 14 14 14 13 12 13 13 13 13 14 15 16 16 16 18 19 20 19 19 20 20 19 17 17 18 18 18 18 19 19 19 19 21 22 24 26 29 30 31 32 34 36 37 38 39 38 39 41 40
11 16 21 23 23 24 23 23 24 25 24 22 20 18 17 15 14 14 13 13 14 14 14 13 13 13 14 15 15 16 15 15 16 16 15 15 14 14 15 13 12 12 13 13 14 15 15 16 16 16 18 19 19 19 19 19 21 21 20 19 18 17 17 18 18 17 17 18 20 22 24 27 29 30 31 33 35 37 38 39 40 39 39 40 40
28 31 31 32 34 33 32 30 28 26 25 23 21 19 17 16 15 14 14 14 14 14 15 14 13 14 16 17 17 17 17 17 18 17 16 15 14 13 15 14 12 12 14 14 14 14 13 14 15 16 18 19 19 19 20 20 21 21 20 19 18 17 17 17 17 16 17 20 23 24 26 27 28 30 32 33 35 37 39 39 40 39 38 39 40
41 42 41 43 43 41 38 34 30 27 25 23 21 19 18 16 15 15 14 14 14 15 15 14 14 15 17 17 17 17 16 16 17 18 17 15 14 14 15 15 14 14 16 16 15 13 13 15 16 16 17 18 18 18 20 19 19 19 19 19 20 21 21 19 18 17 19 22 24 24 24 25 27 29 30 32 34 36 37 36 37 37 37 38 38
47 47 47 46 45 43 40 35 30 28 26 22 21 22 20 18 17 16 15 15 15 15 15 15 15 15 16 17 17 17 18 18 19 20 18 17 17 18 17 16 15 16 16 16 16 14 13 15 17 16 16 17 17 19 21 20 18 20 21 21 22 22 23 22 22 20 21 23 25 24 23 23 26 28 29 31 33 32 32 33 34 35 35 35 36
46 46 45 44 44 42 36 31 29 28 26 22 21 23 22 20 19 18 16 15 15 15 16 16 15 16 17 17 16 17 18 19 19 18 16 18 19 20 20 18 16 16 16 16 17 16 15 16 17 18 17 17 18 20 22 22 21 22 22 21 20 21 22 22 22 21 21 22 24 24 23 22 25 29 30 30 30 29 29 31 33 35 37 37 37
45 46 46 45 40 31 25 26 27 26 25 24 23 22 20 20 22 20 18 17 16 16 16 16 17 19 18 16 16 17 16 16 18 19 19 21 21 20 20 19 17 18 17 16 17 18 18 17 18 19 19 19 20 21 22 23 23 21 21 20 20 21 22 20 19 20 20 20 23 26 25 23 24 28 29 27 27 28 29 32 36 38 40 39 38
47 48 47 42 33 23 21 24 25 24 24 24 22 21 21 21 22 23 20 17 16 17 17 17 17 17 16 16 16 16 15 15 17 17 17 18 18 17 19 20 19 20 19 18 17 17 16 17 19 19 19 19 20 20 21 22 21 21 20 21 21 21 22 21 21 23 22 21 24 28 28 23 21 25 27 26 26 29 31 34 38 40 41 42 41
46 44 39 32 25 22 22 23 21 20 20 21 21 21 22 22 21 21 20 18 17 18 18 15 14 12 11 11 12 12 12 13 14 14 14 14 14 16 18 18 18 19 19 18 18 17 16 16 17 18 18 18 19 20 20 21 21 21 20 21 21 22 22 22 23 26 26 24 25 27 27 23 21 23 27 28 29 31 33 36 38 41 44 45 45
41 35 27 23 21 22 23 24 21 16 15 19 22 20 19 21 20 18 19 20 19 20 19 17 14 10 7 7 7 8 10 11 12 12 11 10 10 14 17 17 17 17 16 17 17 16 14 13 14 17 17 16 18 19 20 21 21 21 21 22 23 23 23 25 27 28 27 25 25 25 25 25 24 26 30 32 33 34 34 36 39 43 46 47 47
31 26 21 19 20 22 23 23 20 16 15 18 20 19 20 23 21 18 17 18 19 19 19 17 13 10 7 5 4 5 8 11 13 12 11 10 12 15 17 17 17 16 15 15 15 14 13 13 14 16 16 16 18 21 21 21 21 21 21 23 24 24 25 26 27 26 25 24 25 24 25 28 30 29 31 33 33 33 33 35 41 45 46 46 48
21 20 18 18 19 21 22 21 18 15 14 15 17 19 22 24 21 17 15 16 19 19 17 14 12 10 8 5 5 8 11 13 13 12 12 14 14 14 15 16 16 15 16 17 17 17 19 19 18 17 19 21 23 24 24 22 21 19 19 20 21 22 23 23 23 24 25 25 25 25 27 31 31 29 31 32 32 33 35 36 40 43 43 44 46
17 17 17 16 17 19 20 20 18 15 15 17 18 19 20 20 16 13 11 12 14 16 16 15 15 14 11 9 11 12 10 10 11 11 12 13 12 13 15 16 15 15 16 16 17 18 19 20 20 21 22 22 21 21 20 19 18 16 15 16 18 20 20 18 18 23 27 26 25 25 27 29 28 28 31 32 31 32 34 36 38 39 40 42 43
17 17 17 17 17 18 19 19 19 17 16 18 20 22 21 18 15 13 12 10 10 15 17 16 16 15 13 13 11 7 7 11 11 10 11 11 11 12 15 14 14 15 16 16 17 17 16 19 22 23 23 21 19 19 19 18 18 16 16 17 18 20 20 18 19 24 28 28 25 21 22 26 26 26 28 28 30 32 32 32 35 37 37 37 38
17 17 17 18 17 17 17 18 19 18 17 17 20 22 22 21 20 16 13 12 14 18 19 16 13 9 7 7 6 5 9 11 10 9 10 10 10 10 12 13 15 17 17 16 16 16 17 19 20 20 20 19 19 19 19 19 18 18 19 19 19 20 21 22 23 23 22 23 21 17 18 23 24 24 24 20 19 25 29 29 31 34 35 34 35
Wind_Direction
238 241 248 256 265 263 259 258 259 264 269 266 264 271 277 279 285 298 309 317 322 327 332 334 333 334 334 330 327 322 317 312 307 303 297 295 286 276 273 260 248 237 234 244 259 267 261 242 226 219 224 229 230 233 233 231 230 230 228 223 222 221 219 219 217 216 218 221 223 226 226 223 226 229 234 238 242 248 251 253 253 254 254 253 253
241 245 248 249 260 265 265 264 257 249 257 265 263 265 272 279 289 302 312 317 321 325 327 328 327 328 329 329 328 324 318 312 307 301 294 293 289 284 280 261 240 236 234 233 244 262 268 261 241 227 229 228 224 226 232 238 239 236 235 232 228 224 221 222 224 222 220 223 226 229 231 229 229 229 232 236 242 246 250 255 257 258 259 259 259
242 255 255 251 256 261 265 273 275 267 267 273 271 270 276 286 298 306 312 313 316 320 322 324 324 327 329 329 327 325 319 313 306 299 293 291 291 288 284 272 254 241 231 228 232 244 257 262 251 235 234 230 223 220 225 234 242 244 240 238 236 231 227 224 227 230 226 226 227 232 236 236 236 234 234 236 240 245 248 253 257 259 262 264 264
240 252 259 259 258 259 263 269 272 265 269 277 271 272 278 286 291 297 301 305 313 317 319 320 320 326 329 329 328 324 321 315 308 302 299 295 292 290 286 279 270 262 248 232 230 227 228 239 239 237 241 237 229 224 224 228 233 237 236 237 238 235 231 227 227 231 233 233 230 232 236 239 242 241 241 241 242 245 248 251 254 257 260 263 266
249 254 259 259 256 259 263 267 268 258 255 257 251 256 268 284 285 285 296 304 311 314 313 314 317 323 325 328 327 322 321 317 313 311 307 302 298 296 291 282 271 271 268 246 231 222 218 232 237 237 247 246 234 228 229 232 234 235 233 235 240 239 236 233 231 231 234 237 237 235 235 238 241 243 245 245 246 246 248 251 253 256 257 261 264
256 257 255 257 258 260 265 268 263 254 252 245 252 264 269 287 287 288 300 304 307 310 310 313 315 317 321 325 325 323 320 318 321 319 314 311 309 304 296 291 279 269 268 258 237 214 209 235 245 240 240 240 230 227 232 235 238 242 241 241 244 242 240 239 237 237 236 236 239 240 240 239 240 242 244 245 247 249 250 252 254 256 258 259 262
253 255 252 255 256 258 266 267 259 263 269 255 271 284 280 286 287 293 302 304 308 304 301 306 307 310 317 322 324 323 318 321 326 323 324 322 317 314 306 298 291 279 269 267 247 194 178 201 236 240 231 229 224 223 226 228 234 242 247 250 250 246 242 241 241 241 239 237 238 240 241 242 243 244 245 245 247 249 251 253 255 257 258 259 259
254 257 253 254 256 261 263 256 257 281 282 265 276 282 276 280 279 293 304 305 303 295 293 298 300 305 312 317 322 323 319 325 328 328 339 334 329 332 324 317 308 292 271 266 260 220 183 181 200 215 215 217 222 224 222 224 232 237 244 250 253 252 245 241 240 242 245 243 240 240 241 242 242 244 246 247 247 248 250 253 255 256 257 258 258
255 257 257 260 263 266 260 250 255 265 251 250 263 273 279 282 273 280 294 294 294 294 295 297 300 305 309 314 317 318 320 328 332 333 339 340 344 351 350 352 346 326 293 264 261 256 233 190 185 190 195 196 202 216 218 218 226 233 239 244 249 253 251 247 246 245 247 247 245 246 247 246 243 242 244 248 251 250 250 251 253 254 255 256 256
257 261 264 265 263 262 260 263 263 239 222 230 243 265 284 291 286 277 281 289 293 296 296 297 301 300 302 306 307 308 317 325 331 338 341 349 355 356 2 8 13 15 14 5 315 278 271 230 192 191 193 191 193 201 208 216 224 230 237 239 244 252 255 255 252 248 248 248 249 250 250 250 248 245 243 246 251 253 253 252 252 253 254 255 255
257 260 257 254 257 260 258 263 260 232 205 218 257 285 293 299 300 290 288 287 285 289 291 294 294 293 299 303 297 287 299 326 329 343 350 357 360 351 0 13 18 22 28 34 33 33 21 12 200 200 188 187 197 202 207 221 231 236 239 238 241 249 253 254 254 252 250 248 249 252 253 253 252 250 247 246 248 251 255 256 256 255 254 255 255
251 251 249 248 251 259 254 244 244 226 202 239 278 297 307 310 303 292 291 286 277 273 277 286 292 292 293 292 286 269 272 329 338 353 357 2 8 357 359 15 18 18 23 28 33 42 46 51 46 50 155 162 182 193 205 220 229 238 242 239 238 244 249 250 251 252 251 248 249 253 255 256 255 253 252 251 250 249 251 254 257 258 258 257 256
246 248 255 251 242 246 244 228 223 219 215 242 266 283 300 301 293 284 279 279 276 270 269 280 286 285 282 283 273 245 259 300 9 20 6 9 24 18 14 22 26 22 23 26 27 35 39 43 42 32 72 119 131 137 172 203 228 236 237 239 238 242 246 245 246 249 249 247 246 248 251 255 257 254 252 251 251 251 251 252 254 257 259 259 259
239 247 256 246 231 234 231 219 214 209 217 242 263 277 281 276 276 272 268 270 275 275 274 272 278 293 302 294 276 227 224 258 298 27 22 24 38 39 35 35 36 30 25 30 32 34 33 36 44 39 40 47 67 85 91 72 44 43 211 235 240 243 248 247 244 244 243 242 244 242 241 248 255 257 255 253 252 253 254 254 254 255 257 259 260
237 244 243 233 228 226 215 214 218 216 232 270 280 281 276 269 260 262 268 267 266 264 262 267 285 309 301 281 287 258 216 217 249 39 22 13 41 54 44 42 44 39 35 36 35 40 42 46 51 50 44 40 39 51 66 71 65 63 95 230 234 238 244 251 252 244 239 242 246 246 243 244 248 253 258 258 257 257 256 255 254 254 256 258 258
238 235 227 225 220 208 198 208 227 239 287 285 283 277 266 263 255 255 260 265 273 268 251 265 292 307 291 282 295 277 243 220 277 82 53 359 50 68 50 43 47 43 42 44 42 46 51 53 56 55 49 45 43 47 58 65 71 61 20 280 229 238 241 249 266 258 247 249 252 251 249 249 248 251 255 258 260 260 258 255 253 253 254 255 257
228 220 221 222 208 198 198 207 249 278 281 268 275 274 265 259 257 258 251 259 284 292 275 270 281 292 294 305 290 267 346 3 330 26 95 26 56 72 50 26 39 45 45 46 48 50 56 59 61 62 57 52 49 50 54 56 70 66 31 343 276 277 271 268 268 260 259 264 267 259 256 256 255 255 255 255 258 260 259 256 254 254 253 254 255
215 210 216 209 196 197 203 246 291 248 239 253 258 263 264 251 254 269 254 250 274 283 282 267 257 259 252 274 299 321 4 358 330 343 81 43 32 81 63 26 21 38 46 47 50 49 50 57 60 62 61 58 57 57 58 58 67 66 50 32 359 346 321 307 292 267 255 255 260 261 261 266 265 262 260 258 258 259 258 257 256 257 257 256 256
214 209 203 193 193 199 203 259 257 230 219 231 247 264 269 247 253 264 255 250 256 266 274 261 249 250 228 216 243 15 21 18 8 3 22 43 4 285 36 33 8 9 25 32 42 44 42 45 43 48 55 54 54 55 60 63 70 61 49 55 59 46 36 20 347 300 277 263 260 261 260 263 265 265 265 263 263 262 260 258 257 257 257 257 256
215 209 202 197 199 202 222 254 240 222 215 221 236 259 254 234 223 207 214 247 257 264 273 274 268 248 207 187 148 80 57 60 50 20 330 320 292 268 338 359 339 345 359 357 9 24 31 28 12 359 12 29 29 29 42 51 71 64 37 43 58 55 50 45 35 17 339 305 285 278 273 268 265 265 264 263 263 264 264 262 261 259 258 257 256
218 213 208 203 202 214 243 249 230 218 216 218 216 197 187 214 191 181 196 226 249 268 265 270 280 275 182 161 119 66 74 79 68 32 327 310 307 305 321 317 308 334 338 332 343 346 340 347 329 313 326 319 324 340 346 351 46 72 4 19 45 47 45 42 34 29 14 353 333 313 299 288 278 272 268 265 263 261 262 262 262 262 261 260 258
222 218 213 206 206 226 242 235 225 218 216 216 207 188 191 203 188 171 187 219 231 251 258 271 290 307 320 149 127 284 284 345 327 311 318 295 300 301 305 311 317 327 320 314 324 318 303 305 289 284 302 294 287 287 301 322 337 344 327 346 25 29 27 25 17 15 12 2 350 337 322 309 296 286 279 274 269 265 263 261 260 260 261 261 260
224 218 211 210 216 228 233 225 217 215 214 212 207 201 192 185 177 164 167 197 218 238 263 282 289 285 270 229 238 262 281 291 286 306 306 291 300 300 306 320 317 310 310 310 310 303 294 290 277 273 285 285 280 275 290 284 280 336 345 333 338 349 352 355 354 355 359 1 357 350 337 322 307 295 287 281 277 273 269 265 263 261 259 259 260
217 214 212 215 221 225 225 218 212 211 212 207 204 208 196 178 173 171 168 181 209 237 264 274 275 271 263 249 255 264 266 270 271 272 274 283 295 289 295 307 300 298 307 306 303 300 299 296 285 279 279 276 268 262 283 273 257 307 339 330 310 310 312 320 329 334 341 351 357 358 353 344 329 313 301 290 283 278 273 270 267 264 261 259 258
212 213 214 216 219 222 220 215 210 208 207 203 198 200 200 194 184 181 184 190 206 218 239 261 267 270 271 264 266 272 267 260 263 266 267 270 269 273 290 298 293 296 301 297 297 299 296 293 288 286 284 275 262 250 266 277 263 282 314 319 301 295 297 301 309 315 320 328 338 347 349 349 345 334 322 309 298 289 281 276 271 268 265 261 258
221 220 217 216 220 222 216 210 207 206 205 203 202 202 204 208 203 199 203 203 209 216 229 248 256 263 269 271 271 275 276 272 270 272 278 280 277 284 296 293 289 294 299 295 293 298 298 294 287 281 278 271 261 251 255 268 270 276 301 314 294 284 290 292 294 299 307 313 321 332 338 342 344 340 333 325 314 304 295 287 281 275 271 266 261
233 229 225 222 223 220 211 206 205 206 205 205 208 210 211 216 218 219 221 218 217 221 229 238 249 256 261 268 273 274 275 275 276 277 281 284 284 289 293 292 295 298 302 302 297 300 304 302 290 267 256 262 263 259 257 263 269 274 294 306 284 274 283 287 290 293 298 304 308 318 328 334 338 337 335 332 325 317 308 299 292 286 280 275 268
233 229 227 226 224 216 208 206 206 207 207 209 214 218 219 223 228 230 234 233 228 231 237 242 249 256 260 266 269 273 277 275 277 277 277 278 277 280 284 291 303 305 303 303 299 302 305 308 305 271 230 243 265 270 264 267 271 272 283 291 279 277 280 279 288 293 294 298 301 309 321 328 332 333 333 332 329 324 318 310 302 295 289 283 277
222 222 221 218 215 210 207 206 208 211 212 211 215 220 222 228 236 240 243 245 242 241 245 249 253 258 263 267 266 271 275 272 273 274 273 272 271 274 279 284 293 299 304 306 299 303 306 306 307 293 225 226 258 269 268 271 274 271 275 280 278 280 277 273 284 291 290 292 294 300 313 323 327 329 330 329 327 324 321 316 310 303 296 290 284
209 209 209 206 205 205 207 210 210 214 217 217 218 220 224 232 241 247 249 252 252 251 251 254 258 261 263 264 265 268 271 269 269 270 269 268 267 271 275 275 278 281 290 299 294 297 303 299 298 300 290 274 274 274 273 275 275 270 271 277 279 280 278 278 286 289 285 286 289 293 304 314 320 323 324 324 324 321 319 316 313 309 303 295 288
208 202 200 202 202 202 206 212 215 217 220 222 223 222 226 234 242 250 252 250 249 250 252 255 257 259 260 260 260 262 265 265 264 265 264 262 263 269 272 272 272 271 276 284 286 291 300 300 297 299 298 293 289 286 283 282 281 275 271 275 279 279 279 284 291 292 287 286 287 288 296 306 312 315 317 318 318 318 317 314 312 308 305 302 295
206 197 201 201 199 203 210 218 221 221 222 225 228 227 229 234 241 252 257 252 248 247 250 255 256 256 257 257 258 259 259 256 255 259 260 259 262 269 274 275 272 267 267 273 280 287 293 298 297 296 298 294 289 289 291 292 290 282 274 273 277 278 280 284 288 286 284 284 284 285 293 301 305 307 309 310 311 313 313 311 309 306 304 303 300
198 192 204 204 201 207 216 226 226 225 226 229 232 232 231 235 240 249 255 254 250 247 247 250 251 253 255 256 258 258 256 251 250 256 261 262 266 268 272 273 270 268 266 268 276 285 292 297 298 296 297 294 289 288 288 289 292 288 281 277 278 280 281 281 281 280 279 280 280 282 290 298 301 303 303 303 304 306 308 308 306 304 301 299 298
198 207 227 223 216 219 223 231 233 229 230 231 234 236 237 238 239 244 249 248 245 244 244 245 246 251 254 254 256 256 253 250 248 254 261 264 267 269 271 272 269 269 266 262 269 281 289 294 296 297 297 294 294 293 288 286 290 291 288 284 281 282 283 280 279 279 278 277 278 281 288 296 299 300 301 301 300 301 302 303 303 302 299 297 295
210 227 253 248 237 237 237 240 241 237 232 231 231 233 235 235 236 240 245 246 246 244 242 242 245 250 251 251 253 254 252 249 248 255 260 262 266 268 271 272 267 269 269 257 257 270 280 284 288 292 296 296 296 295 294 292 291 289 287 285 281 280 279 277 277 279 279 276 276 280 288 295 299 299 300 300 299 298 297 298 300 299 298 296 293
293 295 280 268 257 252 249 249 249 244 235 230 229 230 230 231 232 235 239 243 245 244 241 241 245 249 251 250 252 254 252 249 252 258 261 263 266 269 273 275 268 267 270 259 250 258 270 275 276 280 287 291 292 294 296 295 292 287 286 284 279 275 275 277 279 282 282 279 278 284 292 298 300 300 299 298 297 296 294 293 294 295 296 295 292
311 307 276 268 262 255 248 247 247 244 240 233 228 227 228 229 230 232 237 240 242 242 240 240 244 249 252 253 254 256 254 252 255 261 265 269 273 274 275 278 275 271 270 266 259 256 259 266 269 270 273 279 286 292 293 292 292 290 287 281 278 279 282 283 283 284 286 287 288 291 295 298 298 297 296 295 293 291 290 290 289 290 294 294 290
231 238 245 252 253 248 241 237 237 240 241 236 230 227 228 229 230 231 235 238 240 243 243 244 246 249 251 252 253 254 254 254 258 264 270 276 279 279 277 278 281 279 274 270 266 259 257 262 267 270 271 274 283 289 289 290 292 291 288 285 283 285 286 285 286 288 289 290 291 291 291 293 293 293 294 293 292 291 290 289 288 287 290 292 289
226 222 228 237 243 242 237 232 231 231 234 235 231 228 227 228 229 230 234 239 242 245 248 250 251 253 255 254 253 253 253 256 261 265 268 273 278 285 289 291 293 291 288 284 276 266 265 269 272 274 275 275 280 287 290 293 292 286 285 289 289 288 287 287 289 291 291 290 290 289 288 289 291 293 294 295 295 294 291 289 290 289 288 288 288
224 222 225 231 234 234 231 228 225 224 226 228 228 228 227 228 230 232 235 240 244 248 251 252 252 255 259 260 260 260 258 259 263 265 265 269 273 279 286 290 292 293 294 292 284 273 271 277 280 282 280 277 279 289 295 296 292 287 287 292 293 292 294 292 286 287 290 289 288 288 287 289 292 293 294 292 292 292 289 288 291 291 288 288 289
224 225 228 231 230 230 228 226 224 223 221 219 224 231 231 229 232 237 240 243 246 250 255 256 258 259 263 267 269 270 271 268 263 262 266 271 271 273 277 281 284 289 291 290 284 277 276 281 283 283 283 282 286 294 298 297 294 294 297 297 296 295 296 292 285 285 287 287 286 287 288 291 291 290 289 288 288 289 288 287 290 291 289 289 290
223 226 229 231 229 230 229 227 225 224 221 220 224 231 233 233 238 241 242 244 246 251 256 259 266 272 274 273 273 276 280 273 264 267 275 274 270 268 267 269 276 282 283 281 277 276 277 280 283 285 287 289 292 296 298 298 299 300 300 300 297 295 295 292 289 289 289 289 290 289 288 290 289 287 286 286 286 288 286 286 289 291 290 288 286
224 228 229 229 227 227 226 227 227 224 225 228 229 231 234 239 244 245 244 245 245 249 256 263 271 276 276 273 274 283 284 273 274 286 286 277 274 267 257 257 268 273 270 268 269 271 273 275 280 284 288 289 291 293 295 297 301 302 300 298 296 294 294 293 294 294 293 294 294 289 288 288 284 282 283 284 285 286 286 287 290 291 291 289 287
223 225 225 223 221 217 216 223 228 227 230 234 233 233 234 236 242 245 246 248 247 248 255 263 269 273 275 276 281 285 277 267 275 284 278 271 275 269 255 254 265 270 267 264 262 265 269 274 279 283 286 288 289 291 292 296 301 302 299 297 295 293 292 291 290 291 293 294 294 289 288 288 286 283 283 283 284 286 289 292 293 292 292 290 288
218 217 216 216 214 211 211 217 226 229 233 235 233 235 235 233 236 241 243 247 251 252 255 260 265 266 266 274 286 288 283 280 279 274 268 266 264 259 256 259 267 272 271 267 264 264 266 270 276 281 283 285 286 288 291 295 298 298 297 298 297 294 292 288 286 289 292 294 292 288 286 289 290 287 284 286 289 291 293 294 292 291 292 290 286
213 210 210 209 209 211 211 216 223 225 227 232 232 232 234 231 232 238 241 242 248 254 258 262 267 266 254 262 285 295 298 296 285 277 282 277 257 256 262 267 272 272 269 267 269 267 263 262 270 278 280 281 283 287 292 295 296 295 296 298 297 295 291 287 287 290 291 289 286 283 284 290 295 292 289 292 295 294 293 294 293 291 291 289 284
213 211 209 208 211 216 216 217 222 221 224 234 232 226 229 232 234 241 240 236 242 253 257 259 264 269 269 271 282 289 290 285 278 279 284 276 267 269 271 271 273 273 270 269 265 260 262 270 276 280 283 283 283 287 292 295 294 294 294 294 293 292 290 288 288 289 288 287 286 283 285 294 300 296 292 294 297 294 292 294 295 294 290 287 284
212 211 212 212 215 221 218 214 217 216 215 224 223 220 224 227 229 237 241 242 248 250 247 249 256 263 272 282 291 296 291 281 276 277 276 274 275 273 269 269 273 277 278 276 271 269 276 284 285 284 287 288 287 287 291 294 294 293 293 292 288 287 287 289 290 290 291 292 292 289 290 296 300 295 291 294 296 294 294 296 296 295 291 286 284
212 212 215 216 220 222 212 202 205 209 209 218 224 221 219 221 226 233 236 241 252 252 242 238 242 247 257 277 295 302 289 264 262 269 271 274 274 267 268 274 279 281 282 281 280 280 284 290 294 295 294 293 293 294 296 299 299 295 289 285 285 288 289 289 291 292 294 294 292 290 291 293 296 294 293 295 294 293 295 296 295 293 290 287 285
213 214 217 221 222 218 207 198 204 213 214 218 225 225 224 231 239 235 219 215 243 263 261 253 248 251 261 276 287 285 248 243 256 264 265 269 268 265 272 279 281 283 284 285 286 287 289 294 297 297 295 295 298 298 298 299 298 290 279 274 281 289 290 288 291 294 295 293 291 289 287 288 291 293 295 296 294 291 292 294 294 293 290 288 288
217 221 224 227 223 218 216 212 211 220 223 220 226 234 239 243 243 234 224 226 244 259 264 263 263 262 263 273 273 237 227 239 251 257 259 262 261 262 274 282 284 286 286 287 289 290 291 292 292 291 291 293 295 294 291 291 290 286 280 277 281 286 287 289 294 296 295 294 295 295 289 288 292 294 295 298 297 293 292 292 294 295 291 290 292